| time (UTC) | temp F | wind direction | speed MPH | gust MPH | rain 1hr in | rain 24hr in | rain mn in | humidity % | barometer mb |
| 20260902101033 | 49 | 0 | 1.0 | 4.0 | 0.00 | 0.00 | 0.01 | 96 | 1015.9 |
| 20260902100522 | 49 | 0 | 0.0 | 4.0 | 0.00 | 0.00 | 0.01 | 96 | 1015.8 |
| 20260902100013 | 49 | 45 | 2.0 | 4.0 | 0.00 | 0.00 | 0.01 | 95 | 1015.8 |
| 20260902095502 | 50 | 0 | 0.0 | 4.0 | 0.00 | 0.00 | 0.01 | 96 | 1015.8 |
| 20260902094954 | 50 | 0 | 1.0 | 4.0 | 0.00 | 0.00 | 0.01 | 96 | 1015.8 |
| 20260902094451 | 50 | 90 | 2.0 | 4.0 | 0.00 | 0.00 | 0.01 | 96 | 1015.8 |
| 20260902093932 | 50 | 90 | 1.0 | 4.0 | 0.00 | 0.00 | 0.01 | 96 | 1016.0 |
| 20260902093422 | 50 | 90 | 2.0 | 7.0 | 0.00 | 0.00 | 0.01 | 96 | 1015.6 |
| 20260902092912 | 50 | 135 | 2.0 | 8.0 | 0.00 | 0.00 | 0.01 | 95 | 1015.6 |
| 20260902092401 | 50 | 0 | 3.0 | 8.0 | 0.00 | 0.00 | 0.01 | 95 | 1015.6 |
| 20260902091851 | 50 | 45 | 2.0 | 8.0 | 0.00 | 0.00 | 0.01 | 95 | 1015.5 |
| 20260902091341 | 50 | 90 | 4.0 | 8.0 | 0.00 | 0.00 | 0.01 | 95 | 1015.4 |
| 20260902090835 | 49 | 0 | 3.0 | 8.0 | 0.00 | 0.00 | 0.01 | 96 | 1015.5 |
| 20260902085811 | 49 | 90 | 2.0 | 8.0 | 0.00 | 0.00 | 0.01 | 95 | 1015.3 |
| 20260902085301 | 49 | 0 | 2.0 | 8.0 | 0.00 | 0.00 | 0.01 | 96 | 1015.3 |
| 20260902084751 | 49 | 0 | 3.0 | 8.0 | 0.00 | 0.00 | 0.01 | 95 | 1015.1 |
| 20260902084241 | 49 | 45 | 4.0 | 9.0 | 0.00 | 0.00 | 0.01 | 95 | 1015.4 |
| 20260902083731 | 49 | 0 | 3.0 | 9.0 | 0.00 | 0.00 | 0.01 | 95 | 1015.3 |
| 20260902083221 | 50 | 0 | 2.0 | 8.0 | 0.00 | 0.00 | 0.01 | 96 | 1015.6 |
| 20260902082710 | 50 | 45 | 4.0 | 7.0 | 0.00 | 0.00 | 0.01 | 95 | 1015.4 |
| 20260902082201 | 50 | 0 | 1.0 | 7.0 | 0.00 | 0.00 | 0.01 | 95 | 1015.7 |
| 20260902081650 | 50 | 45 | 4.0 | 7.0 | 0.00 | 0.00 | 0.01 | 95 | 1015.5 |
| 20260902081140 | 50 | 45 | 2.0 | 5.0 | 0.00 | 0.00 | 0.01 | 95 | 1015.9 |
| 20260902080630 | 50 | 0 | 2.0 | 5.0 | 0.00 | 0.00 | 0.01 | 95 | 1015.9 |
| 20260902080120 | 50 | 0 | 2.0 | 5.0 | 0.00 | 0.00 | 0.01 | 95 | 1015.7 |
| 20260902075100 | 50 | 90 | 2.0 | 7.0 | 0.00 | 0.00 | 0.01 | 95 | 1015.6 |
| 20260902074550 | 50 | 90 | 2.0 | 7.0 | 0.00 | 0.00 | 0.01 | 95 | 1015.8 |
| 20260902074039 | 50 | 90 | 2.0 | 4.0 | 0.00 | 0.00 | 0.01 | 95 | 1015.7 |
| 20260902073530 | 50 | 90 | 2.0 | 4.0 | 0.00 | 0.00 | 0.01 | 95 | 1015.7 |
| 20260902073019 | 50 | 90 | 1.0 | 6.0 | 0.00 | 0.00 | 0.01 | 95 | 1015.7 |
| 20260902071449 | 50 | 0 | 5.0 | 8.0 | 0.00 | 0.00 | 0.01 | 95 | 1015.8 |
| 20260902070939 | 50 | 0 | 2.0 | 6.0 | 0.00 | 0.00 | 0.01 | 95 | 1015.7 |
| 20260902070428 | 50 | 90 | 2.0 | 4.0 | 0.00 | 0.00 | 0.01 | 95 | 1015.7 |
| 20260902065918 | 50 | 90 | 1.0 | 4.0 | 0.00 | 0.00 | 0.01 | 95 | 1015.9 |
| 20260902065409 | 51 | 0 | 1.0 | 4.0 | 0.00 | 0.00 | 0.01 | 95 | 1015.8 |
| 20260902064859 | 51 | 0 | 1.0 | 4.0 | 0.00 | 0.00 | 0.01 | 95 | 1015.9 |
| 20260902063838 | 51 | 0 | 0.0 | 4.0 | 0.00 | 0.00 | 0.01 | 95 | 1015.9 |
| 20260902063327 | 51 | 0 | 2.0 | 4.0 | 0.00 | 0.00 | 0.01 | 95 | 1016.0 |
| 20260902062818 | 51 | 90 | 2.0 | 4.0 | 0.00 | 0.00 | 0.01 | 95 | 1016.1 |
| 20260902062307 | 51 | 0 | 1.0 | 4.0 | 0.00 | 0.00 | 0.01 | 95 | 1016.3 |
| 20260902061757 | 51 | 0 | 1.0 | 5.0 | 0.00 | 0.00 | 0.01 | 95 | 1016.3 |
| 20260902060737 | 51 | 45 | 2.0 | 0.0 | 0.00 | 0.00 | 0.01 | 95 | 1016.4 |
| 20260902060147 | 51 | 0 | 2.0 | 0.0 | 0.00 | 0.00 | 0.01 | 95 | 1016.5 |
| 20260902055929 | 51 | 0 | 2.0 | 4.0 | 0.01 | 0.01 | 0.01 | 95 | 1016.6 |
| 20260902055419 | 51 | 0 | 1.0 | 4.0 | 0.01 | 0.01 | 0.01 | 95 | 1016.5 |
| 20260902054909 | 51 | 45 | 2.0 | 4.0 | 0.01 | 0.01 | 0.01 | 95 | 1016.7 |
| 20260902054358 | 51 | 90 | 2.0 | 4.0 | 0.01 | 0.01 | 0.01 | 95 | 1016.6 |
| 20260902052829 | 51 | 0 | 2.0 | 4.0 | 0.00 | 0.00 | 0.00 | 95 | 1016.8 |
| 20260902052330 | 51 | 0 | 2.0 | 4.0 | 0.00 | 0.00 | 0.00 | 95 | 1016.9 |
| 20260902051808 | 51 | 45 | 0.0 | 3.0 | 0.00 | 0.00 | 0.00 | 95 | 1017.2 |
| 20260902050748 | 51 | 0 | 1.0 | 4.0 | 0.00 | 0.00 | 0.00 | 95 | 1017.2 |
| 20260902050238 | 51 | 90 | 1.0 | 3.0 | 0.00 | 0.00 | 0.00 | 95 | 1017.1 |
| 20260902045728 | 51 | 45 | 1.0 | 4.0 | 0.00 | 0.00 | 0.00 | 95 | 1017.0 |
| 20260902045218 | 52 | 0 | 3.0 | 6.0 | 0.00 | 0.00 | 0.00 | 95 | 1016.9 |
| 20260902044708 | 52 | 0 | 2.0 | 6.0 | 0.00 | 0.00 | 0.00 | 95 | 1017.0 |
| 20260902044157 | 52 | 0 | 2.0 | 5.0 | 0.00 | 0.00 | 0.00 | 95 | 1017.2 |
| 20260902043647 | 52 | 45 | 2.0 | 5.0 | 0.00 | 0.00 | 0.00 | 95 | 1017.2 |
| 20260902043137 | 52 | 90 | 2.0 | 4.0 | 0.00 | 0.00 | 0.00 | 95 | 1017.3 |
| 20260902042627 | 52 | 0 | 2.0 | 4.0 | 0.00 | 0.00 | 0.00 | 95 | 1017.3 |
| 20260902042118 | 52 | 45 | 2.0 | 4.0 | 0.00 | 0.00 | 0.00 | 95 | 1017.4 |
| 20260902041607 | 51 | 90 | 1.0 | 2.0 | 0.00 | 0.00 | 0.00 | 95 | 1017.4 |
| 20260902041057 | 52 | 90 | 1.0 | 4.0 | 0.00 | 0.00 | 0.00 | 95 | 1017.3 |
| 20260902040547 | 52 | 90 | 2.0 | 5.0 | 0.00 | 0.00 | 0.00 | 95 | 1017.2 |
| 20260902040047 | 52 | 45 | 2.0 | 5.0 | 0.00 | 0.00 | 0.00 | 95 | 1017.6 |
| 20260902035527 | 52 | 90 | 2.0 | 4.0 | 0.00 | 0.00 | 0.00 | 95 | 1017.6 |
| 20260902035017 | 52 | 45 | 2.0 | 4.0 | 0.00 | 0.00 | 0.00 | 95 | 1017.6 |
| 20260902034510 | 52 | 0 | 2.0 | 4.0 | 0.00 | 0.00 | 0.00 | 95 | 1017.5 |
| 20260902033956 | 53 | 90 | 1.0 | 4.0 | 0.00 | 0.00 | 0.00 | 95 | 1017.6 |
| 20260902033446 | 53 | 0 | 1.0 | 2.0 | 0.00 | 0.00 | 0.00 | 95 | 1017.5 |
| 20260902032936 | 53 | 0 | 1.0 | 3.0 | 0.00 | 0.00 | 0.00 | 95 | 1017.5 |
| 20260902032426 | 54 | 0 | 2.0 | 3.0 | 0.00 | 0.00 | 0.00 | 95 | 1017.9 |
| 20260902031406 | 54 | 45 | 2.0 | 4.0 | 0.00 | 0.00 | 0.00 | 95 | 1018.1 |
| 20260902030856 | 54 | 0 | 1.0 | 4.0 | 0.00 | 0.00 | 0.00 | 95 | 1018.1 |
| 20260902025835 | 54 | 0 | 2.0 | 3.0 | 0.00 | 0.00 | 0.20 | 95 | 1018.3 |
| 20260902025325 | 54 | 45 | 2.0 | 4.0 | 0.00 | 0.00 | 0.20 | 95 | 1018.4 |
| 20260902024815 | 54 | 90 | 1.0 | 4.0 | 0.00 | 0.00 | 0.20 | 95 | 1018.4 |
| 20260902023253 | 54 | 90 | 2.0 | 4.0 | 0.00 | 0.00 | 0.20 | 95 | 1018.4 |
| 20260902022224 | 54 | 45 | 1.0 | 3.0 | 0.00 | 0.00 | 0.20 | 95 | 1018.5 |
| 20260902021205 | 55 | 90 | 0.0 | 3.0 | 0.00 | 0.00 | 0.20 | 95 | 1018.4 |
| 20260902020655 | 55 | 90 | 2.0 | 4.0 | 0.00 | 0.00 | 0.20 | 95 | 1018.3 |
| 20260902020144 | 55 | 90 | 0.0 | 4.0 | 0.00 | 0.00 | 0.20 | 94 | 1018.5 |
| 20260902015124 | 55 | 90 | 2.0 | 4.0 | 0.00 | 0.00 | 0.20 | 94 | 1018.1 |
| 20260902014104 | 56 | 90 | 2.0 | 3.0 | 0.00 | 0.00 | 0.20 | 94 | 1018.0 |
| 20260902013553 | 56 | 90 | 2.0 | 3.0 | 0.00 | 0.00 | 0.20 | 94 | 1018.1 |
| 20260902013044 | 56 | 90 | 0.0 | 2.0 | 0.00 | 0.00 | 0.20 | 94 | 1017.9 |
| 20260902012533 | 56 | 90 | 1.0 | 3.0 | 0.00 | 0.00 | 0.20 | 94 | 1017.9 |
| 20260902012023 | 56 | 90 | 2.0 | 3.0 | 0.00 | 0.00 | 0.20 | 94 | 1017.9 |
| 20260902011513 | 56 | 90 | 1.0 | 3.0 | 0.00 | 0.00 | 0.20 | 94 | 1017.8 |
| 20260902011003 | 56 | 90 | 1.0 | 3.0 | 0.00 | 0.00 | 0.20 | 94 | 1018.0 |
| 20260902010453 | 56 | 45 | 1.0 | 3.0 | 0.00 | 0.00 | 0.20 | 94 | 1018.1 |
| 20260902005942 | 57 | 90 | 2.0 | 3.0 | 0.00 | 0.00 | 0.20 | 94 | 1018.1 |
| 20260902005432 | 57 | 90 | 1.0 | 2.0 | 0.00 | 0.00 | 0.20 | 94 | 1018.0 |
| 20260902004923 | 57 | 90 | 0.0 | 1.0 | 0.00 | 0.00 | 0.20 | 94 | 1018.3 |
| 20260902004412 | 57 | 90 | 0.0 | 2.0 | 0.00 | 0.00 | 0.20 | 94 | 1018.2 |
| 20260902003904 | 57 | 90 | 0.0 | 2.0 | 0.00 | 0.00 | 0.20 | 94 | 1018.3 |
| 20260902003353 | 58 | 90 | 1.0 | 2.0 | 0.00 | 0.00 | 0.20 | 94 | 1018.3 |
| 20260902001822 | 58 | 90 | 0.0 | 3.0 | 0.00 | 0.00 | 0.20 | 94 | 1018.2 |
| 20260902001312 | 58 | 90 | 1.0 | 3.0 | 0.00 | 0.00 | 0.20 | 94 | 1018.1 |
| 20260902000801 | 58 | 0 | 0.0 | 2.0 | 0.00 | 0.00 | 0.20 | 93 | 1018.2 |
| 20260902000251 | 58 | 0 | 0.0 | 2.0 | 0.00 | 0.00 | 0.20 | 93 | 1018.1 |
| 20260901235741 | 57 | 0 | 1.0 | 2.0 | 0.00 | 0.00 | 0.20 | 93 | 1018.2 |
| 20260901235231 | 57 | 0 | 1.0 | 2.0 | 0.00 | 0.00 | 0.20 | 93 | 1017.8 |
| 20260901233701 | 58 | 0 | 2.0 | 2.0 | 0.00 | 0.00 | 0.20 | 93 | 1017.9 |
| 20260901233150 | 58 | 90 | 1.0 | 2.0 | 0.00 | 0.00 | 0.20 | 93 | 1018.0 |
| 20260901231620 | 58 | 0 | 0.0 | 0.0 | 0.00 | 0.00 | 0.20 | 93 | 1018.0 |
| 20260901231110 | 58 | 0 | 0.0 | 0.0 | 0.00 | 0.00 | 0.20 | 93 | 1017.8 |
| 20260901230600 | 58 | 0 | 0.0 | 1.0 | 0.00 | 0.00 | 0.20 | 92 | 1017.8 |
| 20260901230050 | 58 | 0 | 0.0 | 2.0 | 0.00 | 0.00 | 0.20 | 92 | 1017.9 |
| 20260901225540 | 58 | 0 | 1.0 | 2.0 | 0.00 | 0.00 | 0.20 | 92 | 1017.9 |
| 20260901225029 | 58 | 0 | 0.0 | 0.0 | 0.00 | 0.00 | 0.20 | 92 | 1017.7 |
| 20260901224519 | 59 | 0 | 0.0 | 0.0 | 0.00 | 0.00 | 0.20 | 92 | 1018.0 |
| 20260901224010 | 59 | 0 | 0.0 | 2.0 | 0.00 | 0.00 | 0.20 | 92 | 1017.9 |
| 20260901222949 | 59 | 180 | 0.0 | 2.0 | 0.00 | 0.00 | 0.20 | 92 | 1018.0 |
| 20260901222439 | 59 | 135 | 0.0 | 2.0 | 0.00 | 0.00 | 0.20 | 92 | 1017.8 |
| 20260901221929 | 59 | 135 | 0.0 | 3.0 | 0.00 | 0.00 | 0.20 | 92 | 1017.9 |
| 20260901220909 | 59 | 180 | 0.0 | 2.0 | 0.00 | 0.00 | 0.20 | 92 | 1017.9 |
| 20260901215849 | 60 | 180 | 1.0 | 4.0 | 0.00 | 0.00 | 0.20 | 92 | 1018.0 |
| 20260901215339 | 60 | 180 | 2.0 | 4.0 | 0.00 | 0.00 | 0.20 | 92 | 1017.9 |
| 20260901214828 | 60 | 180 | 2.0 | 4.0 | 0.00 | 0.00 | 0.20 | 92 | 1018.4 |
| 20260901214318 | 60 | 180 | 2.0 | 5.0 | 0.00 | 0.00 | 0.20 | 91 | 1018.2 |
| 20260901213808 | 60 | 180 | 3.0 | 5.0 | 0.00 | 0.00 | 0.20 | 91 | 1017.9 |
| 20260901212748 | 60 | 225 | 3.0 | 7.0 | 0.00 | 0.00 | 0.20 | 91 | 1017.8 |
| 20260901212238 | 60 | 180 | 4.0 | 7.0 | 0.00 | 0.00 | 0.20 | 91 | 1017.9 |
| 20260901211728 | 60 | 180 | 5.0 | 6.0 | 0.00 | 0.00 | 0.20 | 91 | 1017.9 |
| 20260901211217 | 60 | 180 | 3.0 | 4.0 | 0.00 | 0.00 | 0.20 | 91 | 1017.9 |
| 20260901210708 | 60 | 180 | 2.0 | 6.0 | 0.00 | 0.00 | 0.20 | 91 | 1017.7 |
| 20260901210158 | 60 | 180 | 3.0 | 8.0 | 0.00 | 0.00 | 0.20 | 90 | 1017.5 |
| 20260901204627 | 60 | 180 | 5.0 | 8.0 | 0.00 | 0.00 | 0.20 | 90 | 1017.4 |
| 20260901204117 | 60 | 270 | 5.0 | 8.0 | 0.00 | 0.00 | 0.20 | 90 | 1017.5 |
| 20260901203607 | 60 | 180 | 6.0 | 8.0 | 0.00 | 0.00 | 0.20 | 90 | 1017.5 |
| 20260901202546 | 60 | 180 | 7.0 | 8.0 | 0.00 | 0.00 | 0.20 | 90 | 1017.5 |
| 20260901202036 | 60 | 225 | 4.0 | 10.0 | 0.00 | 0.00 | 0.20 | 90 | 1017.3 |
| 20260901201526 | 60 | 270 | 8.0 | 10.0 | 0.00 | 0.00 | 0.20 | 91 | 1017.3 |
| 20260901201016 | 59 | 180 | 7.0 | 9.0 | 0.00 | 0.00 | 0.20 | 91 | 1017.2 |
| 20260901195955 | 59 | 180 | 8.0 | 11.0 | 0.00 | 0.00 | 0.20 | 91 | 1017.1 |
| 20260901195446 | 59 | 180 | 8.0 | 11.0 | 0.00 | 0.00 | 0.20 | 90 | 1017.2 |
| 20260901194425 | 59 | 225 | 8.0 | 11.0 | 0.00 | 0.00 | 0.20 | 90 | 1017.2 |
| 20260901193916 | 59 | 225 | 4.0 | 11.0 | 0.00 | 0.00 | 0.20 | 90 | 1017.3 |
| 20260901193406 | 59 | 180 | 6.0 | 11.0 | 0.00 | 0.00 | 0.20 | 91 | 1017.3 |
| 20260901192855 | 59 | 180 | 8.0 | 11.0 | 0.00 | 0.00 | 0.20 | 91 | 1017.3 |
| 20260901192345 | 59 | 180 | 9.0 | 12.0 | 0.00 | 0.00 | 0.20 | 91 | 1017.4 |
| 20260901190816 | 59 | 180 | 9.0 | 12.0 | 0.00 | 0.00 | 0.20 | 91 | 1017.4 |
| 20260901190305 | 59 | 180 | 9.0 | 12.0 | 0.00 | 0.00 | 0.20 | 91 | 1017.2 |
| 20260901185755 | 59 | 180 | 10.0 | 11.0 | 0.00 | 0.00 | 0.20 | 90 | 1017.3 |
| 20260901185245 | 59 | 180 | 8.0 | 11.0 | 0.00 | 0.00 | 0.20 | 90 | 1017.2 |
| 20260901184734 | 59 | 180 | 7.0 | 11.0 | 0.00 | 0.00 | 0.20 | 90 | 1017.5 |
| 20260901183714 | 59 | 180 | 10.0 | 11.0 | 0.00 | 0.00 | 0.20 | 90 | 1017.5 |
| 20260901183204 | 59 | 225 | 7.0 | 10.0 | 0.00 | 0.00 | 0.20 | 90 | 1017.4 |
| 20260901182144 | 59 | 180 | 6.0 | 10.0 | 0.00 | 0.00 | 0.20 | 90 | 1017.5 |
| 20260901181634 | 58 | 180 | 5.0 | 10.0 | 0.00 | 0.00 | 0.20 | 91 | 1017.4 |
| 20260901181123 | 58 | 225 | 8.0 | 11.0 | 0.00 | 0.00 | 0.20 | 91 | 1017.2 |
| 20260901180104 | 58 | 225 | 8.0 | 11.0 | 0.00 | 0.00 | 0.20 | 91 | 1017.6 |
| 20260901175053 | 58 | 180 | 9.0 | 11.0 | 0.00 | 0.00 | 0.20 | 92 | 1017.6 |
| 20260901174023 | 57 | 180 | 6.0 | 13.0 | 0.00 | 0.00 | 0.20 | 92 | 1017.8 |
| 20260901173003 | 57 | 180 | 10.0 | 13.0 | 0.00 | 0.00 | 0.20 | 92 | 1017.8 |
| 20260901171943 | 57 | 180 | 9.0 | 13.0 | 0.00 | 0.00 | 0.20 | 91 | 1018.0 |
| 20260901171434 | 57 | 225 | 8.0 | 11.0 | 0.00 | 0.00 | 0.20 | 91 | 1018.1 |
| 20260901170922 | 57 | 180 | 8.0 | 11.0 | 0.00 | 0.00 | 0.20 | 91 | 1018.3 |
| 20260901165902 | 57 | 225 | 8.0 | 11.0 | 0.00 | 0.00 | 0.20 | 91 | 1018.4 |
| 20260901164842 | 57 | 180 | 6.0 | 8.0 | 0.00 | 0.00 | 0.20 | 92 | 1018.4 |
| 20260901164332 | 56 | 180 | 5.0 | 8.0 | 0.00 | 0.00 | 0.20 | 92 | 1018.8 |
| 20260901163821 | 56 | 225 | 2.0 | 8.0 | 0.00 | 0.00 | 0.20 | 92 | 1018.7 |
| 20260901163311 | 56 | 180 | 4.0 | 8.0 | 0.00 | 0.00 | 0.20 | 92 | 1018.8 |
| 20260901162802 | 56 | 180 | 6.0 | 10.0 | 0.00 | 0.00 | 0.20 | 92 | 1018.8 |
| 20260901162252 | 56 | 180 | 7.0 | 10.0 | 0.00 | 0.00 | 0.20 | 93 | 1018.9 |
| 20260901161741 | 56 | 270 | 4.0 | 9.0 | 0.00 | 0.00 | 0.20 | 93 | 1018.9 |
| 20260901161231 | 56 | 180 | 7.0 | 9.0 | 0.00 | 0.00 | 0.20 | 93 | 1018.8 |
| 20260901160721 | 56 | 180 | 2.0 | 4.0 | 0.00 | 0.00 | 0.20 | 93 | 1018.8 |
| 20260901160210 | 56 | 180 | 2.0 | 4.0 | 0.00 | 0.00 | 0.20 | 93 | 1018.9 |
| 20260901155701 | 56 | 180 | 1.0 | 4.0 | 0.00 | 0.00 | 0.20 | 94 | 1018.9 |
| 20260901155150 | 55 | 90 | 2.0 | 4.0 | 0.00 | 0.00 | 0.20 | 94 | 1019.0 |
| 20260901154641 | 55 | 180 | 2.0 | 6.0 | 0.00 | 0.00 | 0.20 | 94 | 1019.1 |
| 20260901154131 | 55 | 180 | 2.0 | 7.0 | 0.00 | 0.00 | 0.20 | 94 | 1019.1 |
| 20260901152600 | 55 | 180 | 2.0 | 11.0 | 0.00 | 0.00 | 0.20 | 94 | 1019.1 |
| 20260901152049 | 55 | 180 | 7.0 | 11.0 | 0.00 | 0.00 | 0.00 | 95 | 1019.4 |
| 20260901151540 | 55 | 180 | 6.0 | 10.0 | 0.00 | 0.00 | 0.00 | 95 | 1019.5 |
| 20260901151029 | 55 | 180 | 5.0 | 8.0 | 0.00 | 0.00 | 0.00 | 95 | 1019.5 |
| 20260901150519 | 54 | 180 | 4.0 | 8.0 | 0.00 | 0.00 | 0.00 | 95 | 1019.4 |
| 20260901150013 | 54 | 180 | 4.0 | 8.0 | 0.00 | 0.00 | 0.00 | 95 | 1019.4 |
| 20260901144949 | 54 | 180 | 2.0 | 9.0 | 0.00 | 0.00 | 0.00 | 95 | 1019.3 |
| 20260901144439 | 54 | 180 | 2.0 | 9.0 | 0.00 | 0.00 | 0.00 | 95 | 1019.6 |
| 20260901143929 | 54 | 180 | 5.0 | 9.0 | 0.00 | 0.00 | 0.00 | 95 | 1019.6 |
| 20260901143419 | 54 | 135 | 4.0 | 9.0 | 0.00 | 0.00 | 0.00 | 95 | 1019.3 |
| 20260901142908 | 54 | 135 | 7.0 | 9.0 | 0.00 | 0.00 | 0.00 | 95 | 1019.5 |
| 20260901142358 | 54 | 180 | 5.0 | 11.0 | 0.00 | 0.00 | 0.00 | 95 | 1019.4 |
| 20260901141848 | 54 | 135 | 5.0 | 11.0 | 0.00 | 0.00 | 0.00 | 95 | 1019.4 |
| 20260901141338 | 54 | 135 | 8.0 | 11.0 | 0.00 | 0.00 | 0.00 | 95 | 1019.3 |
| 20260901140828 | 54 | 180 | 6.0 | 12.0 | 0.00 | 0.00 | 0.00 | 95 | 1019.3 |
| 20260901140318 | 54 | 180 | 6.0 | 15.0 | 0.00 | 0.00 | 0.00 | 95 | 1019.3 |
| 20260901135808 | 54 | 180 | 11.0 | 15.0 | 0.00 | 0.00 | 0.00 | 95 | 1019.6 |
| 20260901135258 | 54 | 180 | 10.0 | 14.0 | 0.00 | 0.00 | 0.00 | 95 | 1019.5 |
| 20260901134748 | 54 | 180 | 10.0 | 14.0 | 0.00 | 0.00 | 0.00 | 95 | 1019.5 |
| 20260901134237 | 54 | 180 | 9.0 | 16.0 | 0.00 | 0.00 | 0.00 | 95 | 1019.3 |
| 20260901133728 | 54 | 180 | 12.0 | 19.0 | 0.00 | 0.00 | 0.00 | 95 | 1019.7 |
| 20260901133218 | 53 | 180 | 15.0 | 19.0 | 0.00 | 0.00 | 0.00 | 95 | 1019.7 |
| 20260901132707 | 54 | 180 | 14.0 | 17.0 | 0.00 | 0.00 | 0.00 | 95 | 1019.6 |
| 20260901132157 | 54 | 180 | 15.0 | 17.0 | 0.00 | 0.00 | 0.00 | 95 | 1019.5 |
| 20260901131647 | 54 | 180 | 14.0 | 17.0 | 0.00 | 0.00 | 0.00 | 95 | 1019.7 |
| 20260901131137 | 54 | 180 | 14.0 | 16.0 | 0.00 | 0.00 | 0.00 | 95 | 1019.3 |
| 20260901130634 | 54 | 180 | 11.0 | 17.0 | 0.00 | 0.00 | 0.00 | 95 | 1019.3 |
| 20260901130116 | 54 | 180 | 11.0 | 17.0 | 0.00 | 0.00 | 0.00 | 95 | 1019.4 |
| 20260901125607 | 54 | 180 | 13.0 | 16.0 | 0.00 | 0.00 | 0.00 | 95 | 1019.4 |
| 20260901125057 | 54 | 180 | 11.0 | 16.0 | 0.00 | 0.00 | 0.00 | 95 | 1019.2 |
| 20260901123526 | 54 | 180 | 8.0 | 14.0 | 0.00 | 0.00 | 0.00 | 95 | 1019.0 |
| 20260901123017 | 54 | 180 | 10.0 | 16.0 | 0.00 | 0.00 | 0.00 | 95 | 1018.9 |
| 20260901122507 | 54 | 180 | 9.0 | 16.0 | 0.00 | 0.00 | 0.00 | 95 | 1018.6 |
| 20260901121445 | 54 | 180 | 13.0 | 15.0 | 0.00 | 0.00 | 0.00 | 95 | 1018.5 |
| 20260901120936 | 54 | 180 | 9.0 | 15.0 | 0.00 | 0.00 | 0.00 | 95 | 1018.5 |
| 20260901120426 | 54 | 180 | 11.0 | 14.0 | 0.00 | 0.00 | 0.00 | 95 | 1018.3 |
| 20260901115928 | 54 | 180 | 10.0 | 16.0 | 0.00 | 0.00 | 0.00 | 95 | 1018.0 |
| 20260901115405 | 54 | 180 | 13.0 | 16.0 | 0.00 | 0.00 | 0.00 | 95 | 1018.2 |
| 20260901114856 | 54 | 180 | 13.0 | 15.0 | 0.00 | 0.00 | 0.00 | 95 | 1018.1 |
| 20260901114345 | 54 | 180 | 11.0 | 16.0 | 0.00 | 0.00 | 0.00 | 95 | 1018.3 |
| 20260901112815 | 53 | 180 | 11.0 | 16.0 | 0.00 | 0.00 | 0.00 | 95 | 1017.9 |
| 20260901112306 | 53 | 180 | 10.0 | 16.0 | 0.00 | 0.00 | 0.00 | 95 | 1017.9 |
| 20260901111754 | 53 | 180 | 13.0 | 16.0 | 0.00 | 0.00 | 0.00 | 95 | 1017.7 |
| 20260901111244 | 53 | 180 | 0.0 | 7.0 | 0.00 | 0.00 | 0.00 | 95 | 1017.2 |
| 20260901110734 | 53 | 180 | 2.0 | 7.0 | 0.00 | 0.00 | 0.00 | 95 | 1017.2 |
| 20260901110224 | 53 | 135 | 3.0 | 5.0 | 0.00 | 0.00 | 0.00 | 95 | 1017.1 |
| 20260901105714 | 53 | 180 | 2.0 | 5.0 | 0.00 | 0.00 | 0.00 | 95 | 1017.0 |
| 20260901105204 | 53 | 180 | 2.0 | 4.0 | 0.00 | 0.00 | 0.00 | 95 | 1016.8 |
| 20260901104654 | 53 | 135 | 2.0 | 4.0 | 0.00 | 0.00 | 0.00 | 95 | 1016.9 |
| 20260901102613 | 53 | 180 | 2.0 | 5.0 | 0.00 | 0.00 | 0.00 | 95 | 1016.9 |